User: anonymous   Login
Location: Caltech
(34.1382°N, 118.1253°W)
Time: 12:59:37
(UTC-08:00)
Language:

Cosmos 1697 Rocket - Orbit

View from above orbital plane
View from above orbital plane
View from above satellite
View from above satellite

Ground track
Ground track

The orbit data is extracted from the following two-line orbital elements,

1 16182U 85097B   14351.61259763 -.00000098  00000-0 -25566-4 0  4385
2 16182 071.0034 127.9792 0007375 006.5687 053.9110 14.16143767507029
Epoch (UTC): 17 December 2014 14:42:08
Eccentricity: 0.0007375
inclination: 71.0034°
perigee height: 833 km
apogee height: 844 km
right ascension of ascending node: 127.9792°
argument of perigee: 6.5687°
revolutions per day: 14.16143767
mean anomaly at epoch: 53.9110°
orbit number at epoch: 50702

The dashed part of the orbit path shows where the satellite is in the earth's shadow,  

DLR